Location: Bergnerzell
(49.1816°N, 10.2565°E)
Time: 20:26:23
(UTC+00:00)

Meteor 1-28 Rocket - Pass Details

Date: 23 May 2024
Orbit: 474 x 488 km, 97.5° (Epoch: 24 June)

Event Time Altitude Azimuth Distance (km) Brightness Sun altitude
Exits shadow 02:00:54 - 176° (S) 1,738 5.4 -11.1°
Reaches altitude 10° 02:01:06 10° 176° (S) 1,657 5.3 -11.1°
Maximum altitude 02:04:37 64° 258° (WSW) 540 3.0 -10.7°
Drops below altitude 10° 02:08:10 10° 341° (NNW) 1,663 6.2 -10.4°
Sets 02:10:16 0° 345° (NNW) 2,545 7.2 -10.1°
